Location: Newark
(7.0858°N, 171.3717°E)
Time: 07:54:48
(UTC+00:00)

Courier 1B - Pass Details

Date: 29 November 2020
Orbit: 962 x 1209 km, 28.3° (Epoch: 20 January)

Event Time Altitude Azimuth Distance (km) Brightness Sun altitude
Rises 09:54:54 0° 280° (W) 3,659 11.0 -51.5°
Enters shadow 09:56:14 - 285° (WNW) 3,267 10.6 -51.8°
Reaches altitude 10° 09:58:15 10° 296° (WNW) 2,737 - -52.2°
Maximum altitude 10:03:01 20° 343° (NNW) 2,123 - -53.3°
Drops below altitude 10° 10:07:57 10° 29° (NNE) 2,846 - -54.3°
Sets 10:11:33 0° 45° (NE) 3,849 - -55.1°
